Weather Roundup
Issued by NWS

Home | Current Version | Previous Version | Graphics & Text | Print | Product List | Glossary Off
Versions: 1 2 3 4 5 6 7 8 9 10 11 12 13 14 15 16 17 18 19 20 21 22 23 24 25 26 27 28 29 30 31 32 33 34 35 36 37 38 39 40 41 42 43 44 45 46 47 48 49 50

000
NZUS93 KARX 280559
HRRWXR

CURRENT HOURLY OBSERVATIONS ACROSS
MUCH OF THE UPPER MISSISSIPPI VALLEY
NATIONAL WEATHER SERVICE LA CROSSE WI
1200 AM CST SAT FEB 28 2015


...SOUTHEAST MINNESOTA...


CITY           SKY/WX    TMP DP  RH WIND       PRES   REMARKS
ROCHESTER      CLEAR     -9 -12  87 S8        30.52F WCI -25
ROCHESTER/MAYO FAIR      -2  -7  78 SE3       30.54S
WINONA         PTCLDY     3  -4  72 W3        30.62S
AUSTIN         PTCLDY    -8 -11  84 CALM      30.53F
ALBERT LEA     PTCLDY    -2  -6  84 S5        30.52F WCI -12
DODGE CENTER   PTCLDY     0  -4  85 SW14      30.50F WCI -19
PRESTON        PTCLDY    -6  -9  83 SW5       30.54F WCI -16
OWATONNA       PTCLDY     0  -6  78 S9        30.52S WCI -16
FARIBAULT      CLEAR     -2  -6  84 S5        30.53S WCI -12
$$

...ELSEWHERE IN MINNESOTA...


CITY           SKY/WX    TMP DP  RH WIND       PRES   REMARKS
MINNEAPOLIS    CLEAR      5  -2  72 S6        30.54R WCI  -6
INTNL FALLS    CLEAR    -11 -17  75 SW5       30.33S WCI -23
DULUTH         CLEAR      6  -6  57 SW9       30.39R WCI  -8
RED WING       CLEAR     -2  -8  78 CALM      30.56S
REDWOOD FALLS  CLEAR     -1  -6  79 S9        30.48F WCI -16
MANKATO        CLEAR      0  -9  65 S8        30.51F WCI -15
FAIRMONT       FAIR      -6 -13  71 S8        30.48F WCI -21
$$

...SOUTHWEST WISCONSIN...


CITY           SKY/WX    TMP DP  RH WIND       PRES   REMARKS
LA CROSSE      CLEAR      1  -6  72 SE5       30.62S WCI  -9
PRAIRIE DU CHI PTCLDY    -6 -12  75 CALM      30.65R
BOSCOBEL       FAIR      -8 -12  83 CALM      30.65R
LONE ROCK      NOT AVBL
PLATTEVILLE    PTCLDY    -3  -8  78 S7        30.61S WCI -16
FORT MC COY    CLEAR     -9 -14  78 CALM      30.60S
VIROQUA        FAIR      -3  -8  78 SW5       30.55S WCI -13
WIS DELLS      NOT AVBL
$$

...ELSEWHERE IN WISCONSIN...


CITY           SKY/WX    TMP DP  RH WIND       PRES   REMARKS
MILWAUKEE      CLEAR      4  -7  60 W8        30.63R WCI  -9
MADISON        PTCLDY     1  -8  66 CALM      30.60S
GREEN BAY      CLEAR      8  -4  58 SW5       30.57R WCI   0
EAU CLAIRE     NOT AVBL
BLACK RVR FLS  FAIR       0  -8  70 S5        30.58S WCI -10
MEDFORD        PTCLDY     0  -6  76 SW5       30.47S WCI -10
WAUSAU         CLEAR      2  -7  66 W6        30.50R WCI  -9
WIS RAPIDS     CLEAR      2  -8  63 SW7       30.56S WCI -11
MARSHFIELD     PTCLDY     0  -9  65 SW7       30.51S WCI -13
RICE LAKE      CLEAR      0  -6  76 S3        30.52R
$$

...NORTHEAST IOWA...


CITY           SKY/WX    TMP DP  RH WIND       PRES   REMARKS
DECORAH        MOCLDY    -4  -9  77 SW3       30.57R
MASON CITY     MOCLDY   -10 -14  82 S5        30.56S WCI -22
CHARLES CITY   MOCLDY    -6  -9  84 S9        30.58S WCI -22
OELWEIN        MOCLDY    -9 -15  77 S7        30.60S WCI -24
$$

...ELSEWHERE IN IOWA...


CITY           SKY/WX    TMP DP  RH WIND       PRES   REMARKS
DES MOINES     CLEAR      6  -3  66 SE8       30.58F WCI  -7
IOWA CITY      PTCLDY    -8 -11  86 CALM      30.66F
FORT DODGE     PTCLDY    -2 -11  65 CALM      30.55S
$$

...NORTHERN ILLINOIS...


CITY           SKY/WX    TMP DP  RH WIND       PRES   REMARKS
CHICAGO-OHARE  CLEAR      1  -6  72 W5        30.66R WCI  -9
CHICAGO-MIDWAY FAIR       5  -4  66 SW5       30.68R WCI  -4
MOLINE         MOCLDY   -14 -19  79 CALM      30.67S
ROCKFORD       MOCLDY    -7 -13  75 S3        30.67S
PEORIA         PTCLDY     2  -4  76 CALM      30.67F
$$

NOTE: "FAIR" INDICATES FEW OR NO CLOUDS BELOW 12,000 FEET WITH NO
SIGNIFICANT WEATHER AND/OR OBSTRUCTIONS TO VISIBILITY. WIND
SPEEDS ARE IN MILES-PER-HOUR.



USA.gov is the U.S. government's official web portal to all federal, state and local government web resources and services.